,,,PA_Meas_PMT16A,,PR_Meas_QMR101_102,,RH_Meas_QMH101,,SR_Meas_QMS101,,TA_Meas_QMH101,,GenWind,,GenWind,
date,time,status,PA,status,PR,status,RH,status,SR,status,TA,status,DirAvg,status,SpdAvg,
2012-07-16, 07:17:05,VALID,1005.64,VALID,0,VALID,89.9216,VALID,146.309,VALID,25.3195,VALID,16,VALID,0.757031,
2012-07-16, 07:18:05,VALID,1005.63,VALID,0,VALID,89.9903,VALID,158.29,VALID,25.339,VALID,11,VALID,1.19531,
2012-07-16, 07:19:05,VALID,1005.61,VALID,0,VALID,89.9292,VALID,169.946,VALID,25.3565,VALID,13,VALID,1.12227,
2012-07-16, 07:20:05,VALID,1005.6,VALID,0,VALID,89.502,VALID,181.765,VALID,25.4169,VALID,347,VALID,1.20273,
2012-07-16, 07:21:05,VALID,1005.65,VALID,0,VALID,89.6546,VALID,197.089,VALID,25.4753,VALID,354,VALID,1.19766,
2012-07-16, 07:22:05,VALID,1005.67,VALID,0,VALID,89.6851,VALID,243.06,VALID,25.5142,VALID,353,VALID,1.00078,
2012-07-16, 07:23:05,VALID,1005.7,VALID,0,VALID,89.1969,VALID,305.088,VALID,25.5532,VALID,9,VALID,1.0707,
2012-07-16, 07:24:05,VALID,1005.71,VALID,0,VALID,89.8911,VALID,348.206,VALID,25.6311,VALID,349,VALID,0.864844,
2012-07-16, 07:25:05,VALID,1005.71,VALID,0,VALID,90.1047,VALID,395.074,VALID,25.748,VALID,18,VALID,1.2957,
2012-07-16, 07:26:05,VALID,1005.7,VALID,0,VALID,88.8612,VALID,409.99,VALID,25.8064,VALID,358,VALID,1.34844,
2012-07-16, 07:27:05,VALID,1005.7,VALID,0,VALID,89.5325,VALID,372.577,VALID,25.9232,VALID,12,VALID,0.430078,
2012-07-16, 07:28:05,VALID,1005.65,VALID,0,VALID,90.2268,VALID,271.832,VALID,26.0576,VALID,9,VALID,0.494531,
2012-07-16, 07:29:05,VALID,1005.63,VALID,0,VALID,90.4633,VALID,234.094,VALID,26.1959,VALID,308,VALID,0.310547,
2012-07-16, 07:30:05,VALID,1005.62,VALID,0,VALID,88.9985,VALID,220.808,VALID,26.2544,VALID,297,VALID,0.451953,
2012-07-16, 07:31:05,VALID,1005.63,VALID,0,VALID,87.8847,VALID,193.665,VALID,26.157,VALID,25,VALID,0.362891,
2012-07-16, 07:32:05,VALID,1005.7,VALID,0,VALID,86.809,VALID,180.298,VALID,26.12,VALID,16,VALID,0.61875,
2012-07-16, 07:33:05,VALID,1005.7,VALID,0,VALID,88.7315,VALID,173.369,VALID,26.0985,VALID,18,VALID,0.181641,
2012-07-16, 07:34:05,VALID,1005.74,VALID,0,VALID,89.2808,VALID,172.31,VALID,26.1375,VALID,19,VALID,0.328516,
2012-07-16, 07:35:05,VALID,1005.72,VALID,0,VALID,88.5103,VALID,171.658,VALID,26.0791,VALID,100,VALID,0.592969,
2012-07-16, 07:36:05,VALID,1005.76,VALID,0,VALID,88.6476,VALID,156.334,VALID,26.0012,VALID,87,VALID,0.332422,
2012-07-16, 07:37:05,VALID,1005.79,VALID,0,VALID,89.8682,VALID,145.819,VALID,26.0596,VALID,58,VALID,0.0226563,
2012-07-16, 07:38:05,VALID,1005.88,VALID,0,VALID,88.6705,VALID,141.255,VALID,25.9836,VALID,71,VALID,0.819141,
2012-07-16, 07:39:05,VALID,1005.89,VALID,0,VALID,88.968,VALID,143.13,VALID,26.0012,VALID,21,VALID,0.787891,
2012-07-16, 07:40:05,VALID,1005.9,VALID,0,VALID,89.1892,VALID,145.738,VALID,25.9622,VALID,10,VALID,0.1625,
2012-07-16, 07:41:05,VALID,1005.85,VALID,0,VALID,89.1511,VALID,149.487,VALID,25.9622,VALID,10,VALID,0,
2012-07-16, 07:42:05,VALID,1005.87,VALID,0,VALID,89.0748,VALID,156.579,VALID,25.9817,VALID,22,VALID,0.446094,
2012-07-16, 07:43:05,VALID,1005.89,VALID,0,VALID,89.2426,VALID,166.93,VALID,25.9836,VALID,50,VALID,0.635156,
2012-07-16, 07:44:05,VALID,1005.89,VALID,0,VALID,89.5325,VALID,176.467,VALID,25.9427,VALID,21,VALID,0.764063,
2012-07-16, 07:45:05,VALID,1005.85,VALID,0,VALID,88.4645,VALID,180.298,VALID,25.9057,VALID,308,VALID,0.758203,
2012-07-16, 07:46:05,VALID,1005.85,VALID,0,VALID,87.7626,VALID,187.226,VALID,25.8668,VALID,342,VALID,1.57734,
2012-07-16, 07:47:05,VALID,1005.88,VALID,0,VALID,88.3729,VALID,194.969,VALID,25.8453,VALID,24,VALID,1.01211,
2012-07-16, 07:48:05,VALID,1005.89,VALID,0,VALID,88.7162,VALID,197.415,VALID,25.8259,VALID,4,VALID,1.24648,
2012-07-16, 07:49:05,VALID,1005.87,VALID,0,VALID,88.228,VALID,203.283,VALID,25.8044,VALID,4,VALID,1.62148,
2012-07-16, 07:50:05,VALID,1005.86,VALID,0,VALID,88.1136,VALID,215.021,VALID,25.8259,VALID,3,VALID,1.32187,
2012-07-16, 07:51:05,VALID,1005.89,VALID,0,VALID,89.0748,VALID,316.662,VALID,25.9232,VALID,35,VALID,0.885156,
2012-07-16, 07:52:05,VALID,1005.92,VALID,0,VALID,89.7385,VALID,501.443,VALID,26.0401,VALID,59,VALID,0.653125,
2012-07-16, 07:53:05,VALID,1005.96,VALID,0,VALID,88.5637,VALID,225.046,VALID,26.2154,VALID,24,VALID,1.07969,
2012-07-16, 07:54:05,VALID,1006.01,VALID,0,VALID,87.9,VALID,213.716,VALID,26.2933,VALID,36,VALID,0.673437,
2012-07-16, 07:55:05,VALID,1005.99,VALID,0,VALID,86.2064,VALID,225.291,VALID,26.3518,VALID,44,VALID,0.923437,
2012-07-16, 07:56:05,VALID,1006.03,VALID,0,VALID,86.748,VALID,213.309,VALID,26.3907,VALID,9,VALID,0.702734,
2012-07-16, 07:57:05,VALID,1006.07,VALID,0,VALID,87.2668,VALID,204.18,VALID,26.4707,VALID,16,VALID,0.723437,
2012-07-16, 07:58:05,VALID,1006.12,VALID,0,VALID,86.3894,VALID,209.804,VALID,26.4901,VALID,14,VALID,0.886328,
2012-07-16, 07:59:05,VALID,1006.16,VALID,0,VALID,85.4129,VALID,212.738,VALID,26.5271,VALID,19,VALID,0.632813,
2012-07-16, 08:00:05,VALID,1006.17,VALID,0,VALID,86.4047,VALID,270.202,VALID,26.5855,VALID,57,VALID,0.145313,
2012-07-16, 08:01:05,VALID,1006.12,VALID,0,VALID,84.7263,VALID,243.467,VALID,26.644,VALID,39,VALID,0.80625,
2012-07-16, 08:02:05,VALID,1006.15,VALID,0,VALID,85.5503,VALID,375.838,VALID,26.7219,VALID,18,VALID,0.503516,
2012-07-16, 08:03:05,VALID,1006.11,VALID,0,VALID,84.7416,VALID,317.233,VALID,26.8019,VALID,18,VALID,0.355469,
2012-07-16, 08:04:05,VALID,1006.12,VALID,0,VALID,83.5134,VALID,531.927,VALID,26.8778,VALID,3,VALID,0.721875,
2012-07-16, 08:05:05,VALID,1006.14,VALID,0,VALID,83.0785,VALID,435.502,VALID,27.0357,VALID,339,VALID,0.683203,
2012-07-16, 08:06:05,VALID,1006.14,VALID,0,VALID,82.4758,VALID,418.467,VALID,27.1526,VALID,348,VALID,0.809766,
2012-07-16, 08:07:05,VALID,1006.13,VALID,0,VALID,80.5533,VALID,545.621,VALID,27.209,VALID,353,VALID,0.844531,
2012-07-16, 08:08:05,VALID,1006.1,VALID,0,VALID,81.423,VALID,678.806,VALID,27.4644,VALID,354,VALID,0.0449219,
2012-07-16, 08:09:05,VALID,1006.11,VALID,0,VALID,80.1185,VALID,438.681,VALID,27.7178,VALID,1,VALID,0.957031,
2012-07-16, 08:10:05,VALID,1006.07,VALID,0,VALID,83.2311,VALID,334.757,VALID,27.9538,VALID,341,VALID,0.878516,
2012-07-16, 08:11:05,VALID,1006.08,VALID,0,VALID,78.608,VALID,278.597,VALID,28.008,VALID,342,VALID,1.0875,
2012-07-16, 08:12:05,VALID,1006.06,VALID,0,VALID,78.7072,VALID,241.266,VALID,27.9495,VALID,349,VALID,1.47656,
2012-07-16, 08:13:05,VALID,1006.11,VALID,0,VALID,80.0804,VALID,224.802,VALID,27.7157,VALID,3,VALID,1.30352,
2012-07-16, 08:14:05,VALID,1006.1,VALID,0,VALID,78.6004,VALID,212.331,VALID,27.5792,VALID,13,VALID,0.485938,
2012-07-16, 08:15:05,VALID,1006.11,VALID,0,VALID,79.1573,VALID,204.913,VALID,27.5403,VALID,14,VALID,0.119922,
2012-07-16, 08:16:05,VALID,1006.12,VALID,0,VALID,80.0346,VALID,196.926,VALID,27.5598,VALID,37,VALID,0.380469,
2012-07-16, 08:17:05,VALID,1006.14,VALID,0,VALID,80.0727,VALID,189.101,VALID,27.5403,VALID,10,VALID,0.527344,
2012-07-16, 08:18:05,VALID,1006.16,VALID,0,VALID,79.1496,VALID,181.357,VALID,27.4623,VALID,104,VALID,0.717188,
2012-07-16, 08:19:05,VALID,1006.14,VALID,0,VALID,80.4465,VALID,173.695,VALID,27.4233,VALID,32,VALID,1.63047,
2012-07-16, 08:20:05,VALID,1006.14,VALID,0,VALID,81.4841,VALID,168.316,VALID,27.3433,VALID,344,VALID,0.509375,
2012-07-16, 08:21:05,VALID,1006.15,VALID,0,VALID,80.9501,VALID,159.024,VALID,27.3259,VALID,26,VALID,1.03867,
2012-07-16, 08:22:05,VALID,1006.13,VALID,0,VALID,81.4383,VALID,142.315,VALID,27.2069,VALID,37,VALID,0.821875,
2012-07-16, 08:23:05,VALID,1006.09,VALID,0,VALID,82.4758,VALID,119.492,VALID,27.209,VALID,13,VALID,0.971094,
2012-07-16, 08:29:05,VALID,1006.13,VALID,0,VALID,84.0626,VALID,111.586,VALID,26.9947,VALID,92,VALID,0.985937,
2012-07-16, 08:30:05,VALID,1006.14,VALID,0,VALID,84.2228,VALID,156.09,VALID,26.9947,VALID,34,VALID,0.666016,
2012-07-16, 08:31:05,VALID,1006.13,VALID,0,VALID,84.0855,VALID,150.384,VALID,27.0142,VALID,42,VALID,0.724219,
2012-07-16, 08:32:05,VALID,1006.15,VALID,0,VALID,84.5127,VALID,162.284,VALID,26.9926,VALID,74,VALID,0.650391,
2012-07-16, 08:33:05,VALID,1006.14,VALID,0,VALID,82.7581,VALID,246.32,VALID,26.9752,VALID,38,VALID,1.00625,
2012-07-16, 08:34:05,VALID,1006.16,VALID,0,VALID,83.0709,VALID,159.431,VALID,27.0142,VALID,2,VALID,0.846094,
2012-07-16, 08:35:05,VALID,1006.11,VALID,0,VALID,84.3754,VALID,136.12,VALID,27.0531,VALID,49,VALID,0.50625,
2012-07-16, 08:36:05,VALID,1006.12,VALID,0,VALID,82.9488,VALID,123.649,VALID,27.0142,VALID,106,VALID,0.857813,
2012-07-16, 08:37:05,VALID,1006.08,VALID,0,VALID,83.5973,VALID,116.232,VALID,26.9557,VALID,110,VALID,0.574609,
2012-07-16, 08:38:05,VALID,1006.03,VALID,0,VALID,83.0098,VALID,110.445,VALID,26.9188,VALID,69,VALID,0.572656,
2012-07-16, 08:39:05,VALID,1005.99,VALID,0,VALID,82.5979,VALID,108.488,VALID,26.8973,VALID,140,VALID,0.7875,
2012-07-16, 08:40:05,VALID,1005.98,VALID,0,VALID,83.2387,VALID,108.57,VALID,26.8778,VALID,140,VALID,0.0894531,
2012-07-16, 08:41:05,VALID,1005.97,VALID,0,VALID,84.2381,VALID,106.858,VALID,26.8778,VALID,140,VALID,0.196484,
2012-07-16, 09:39:05,VALID,1006.37,VALID,0.5,VALID,93.7742,VALID,125.361,VALID,23.3143,VALID,114,VALID,1.65117,
2012-07-16, 09:40:05,VALID,1006.35,VALID,0,VALID,93.7818,VALID,138.565,VALID,23.3143,VALID,95,VALID,0.691797,
2012-07-16, 09:41:05,VALID,1006.33,VALID,0,VALID,94.0259,VALID,151.118,VALID,23.3727,VALID,93,VALID,0.855859,
2012-07-16, 09:42:05,VALID,1006.28,VALID,0,VALID,93.881,VALID,162.121,VALID,23.3532,VALID,56,VALID,0.725,
2012-07-16, 09:43:05,VALID,1006.29,VALID,0,VALID,94.0794,VALID,173.614,VALID,23.4098,VALID,106,VALID,1.0582,
2012-07-16, 09:44:05,VALID,1006.26,VALID,0,VALID,94.2319,VALID,186.492,VALID,23.4877,VALID,97,VALID,0.882813,
2012-07-16, 09:45:05,VALID,1006.16,VALID,0,VALID,94.1862,VALID,201.164,VALID,23.5478,VALID,99,VALID,0.615625,
2012-07-16, 09:46:05,VALID,1006.11,VALID,0,VALID,94.2701,VALID,215.265,VALID,23.6062,VALID,84,VALID,0.143359,
2012-07-16, 09:47:05,VALID,1006.04,VALID,0,VALID,94.1785,VALID,232.056,VALID,23.6257,VALID,44,VALID,0.738672,
2012-07-16, 09:48:05,VALID,1006.01,VALID,0,VALID,94.0641,VALID,248.439,VALID,23.6257,VALID,23,VALID,0.2125,
2012-07-16, 09:49:05,VALID,1005.98,VALID,0,VALID,94.4227,VALID,260.829,VALID,23.7796,VALID,23,VALID,0.16875,
2012-07-16, 09:50:05,VALID,1005.99,VALID,0,VALID,94.2396,VALID,271.262,VALID,23.7814,VALID,47,VALID,0.599219,
2012-07-16, 09:51:05,VALID,1005.94,VALID,0,VALID,94.1022,VALID,283.651,VALID,23.8009,VALID,82,VALID,0.303906,
2012-07-16, 09:52:05,VALID,1005.92,VALID,0.5,VALID,94.1709,VALID,315.358,VALID,23.8787,VALID,82,VALID,0.101563,
2012-07-16, 09:53:05,VALID,1005.87,VALID,0,VALID,93.82,VALID,558.255,VALID,23.8398,VALID,100,VALID,1.09883,
2012-07-16, 09:54:05,VALID,1005.89,VALID,0,VALID,93.6521,VALID,471.448,VALID,23.8964,VALID,100,VALID,1.40703,
2012-07-16, 09:55:05,VALID,1005.88,VALID,0,VALID,93.4538,VALID,302.154,VALID,23.9761,VALID,91,VALID,1.48242,
2012-07-16, 09:56:05,VALID,1005.88,VALID,0,VALID,92.9274,VALID,306.8,VALID,23.9937,VALID,90,VALID,1.18242,
2012-07-16, 09:57:05,VALID,1005.88,VALID,0,VALID,93.0037,VALID,390.754,VALID,24.091,VALID,64,VALID,0.883984,
2012-07-16, 09:58:05,VALID,1005.9,VALID,0,VALID,92.8587,VALID,377.957,VALID,24.2097,VALID,92,VALID,1.47773,
2012-07-16, 09:59:05,VALID,1005.93,VALID,0,VALID,91.7297,VALID,283.651,VALID,24.1689,VALID,85,VALID,0.975781,
2012-07-16, 10:00:05,VALID,1005.98,VALID,0,VALID,91.3787,VALID,279.82,VALID,24.2078,VALID,76,VALID,1.25234,
2012-07-16, 10:01:05,VALID,1006,VALID,0,VALID,91.1117,VALID,337.365,VALID,24.2273,VALID,90,VALID,0.942578,
2012-07-16, 10:02:05,VALID,1006.02,VALID,0,VALID,91.8212,VALID,308.919,VALID,24.3246,VALID,62,VALID,0.732813,
2012-07-16, 10:03:05,VALID,1006,VALID,0,VALID,90.8523,VALID,451.233,VALID,24.3052,VALID,50,VALID,1.11016,
2012-07-16, 10:04:05,VALID,1006,VALID,0,VALID,91.7754,VALID,453.76,VALID,24.4433,VALID,34,VALID,0.666797,
2012-07-16, 10:05:05,VALID,1006.03,VALID,0,VALID,90.593,VALID,377.794,VALID,24.5017,VALID,65,VALID,1.37031,
2012-07-16, 10:06:05,VALID,1006.02,VALID,0,VALID,89.0748,VALID,271.832,VALID,24.4822,VALID,35,VALID,1.18633,
2012-07-16, 10:07:05,VALID,1005.99,VALID,0,VALID,88.8459,VALID,294.41,VALID,24.5406,VALID,98,VALID,0.776563,
2012-07-16, 10:08:05,VALID,1005.99,VALID,0,VALID,87.221,VALID,333.453,VALID,24.5406,VALID,24,VALID,1.59883,
2012-07-16, 10:09:05,VALID,1005.96,VALID,0,VALID,88.6323,VALID,311.201,VALID,24.599,VALID,3,VALID,0.570313,
2012-07-16, 10:10:05,VALID,1005.95,VALID,0,VALID,87.3049,VALID,284.14,VALID,24.6185,VALID,28,VALID,1.23281,
2012-07-16, 10:11:05,VALID,1005.97,VALID,0,VALID,87.9534,VALID,285.933,VALID,24.6185,VALID,37,VALID,1.04297,
2012-07-16, 10:12:05,VALID,1006,VALID,0,VALID,87.7321,VALID,288.46,VALID,24.6166,VALID,34,VALID,1.44961,
2012-07-16, 10:13:05,VALID,1006.01,VALID,0,VALID,86.6641,VALID,299.871,VALID,24.6361,VALID,54,VALID,1.42695,
2012-07-16, 10:14:05,VALID,1006.03,VALID,0,VALID,87.7855,VALID,304.925,VALID,24.6574,VALID,19,VALID,1.26172,
2012-07-16, 10:15:05,VALID,1006.01,VALID,0,VALID,88.9146,VALID,314.298,VALID,24.7548,VALID,18,VALID,0.933203,
2012-07-16, 10:16:05,VALID,1006.04,VALID,0,VALID,87.7092,VALID,331.741,VALID,24.7937,VALID,29,VALID,1.22187,
2012-07-16, 10:17:05,VALID,1006.04,VALID,0,VALID,86.6946,VALID,444.713,VALID,24.8132,VALID,19,VALID,1.09648,
2012-07-16, 10:18:05,VALID,1006.05,VALID,0,VALID,87.7474,VALID,660.304,VALID,24.9282,VALID,11,VALID,1.31211,
2012-07-16, 10:19:05,VALID,1006.04,VALID,0,VALID,89.0443,VALID,514.647,VALID,25.2027,VALID,27,VALID,0.678516,
2012-07-16, 10:20:05,VALID,1006.05,VALID,0,VALID,87.343,VALID,460.607,VALID,25.3176,VALID,28,VALID,0.919141,
2012-07-16, 10:21:05,VALID,1006.04,VALID,0,VALID,86.9464,VALID,643.187,VALID,25.4539,VALID,44,VALID,0.556641,
2012-07-16, 10:22:05,VALID,1006.01,VALID,0,VALID,83.0327,VALID,506.904,VALID,25.5921,VALID,25,VALID,0.841016,
2012-07-16, 10:23:05,VALID,1006,VALID,0,VALID,81.3773,VALID,369.969,VALID,25.6506,VALID,19,VALID,0.639063,
2012-07-16, 10:24:05,VALID,1005.95,VALID,0,VALID,82.8954,VALID,350.081,VALID,25.748,VALID,356,VALID,0.517187,
2012-07-16, 10:25:05,VALID,1005.94,VALID,0,VALID,84.7492,VALID,309,VALID,25.8453,VALID,345,VALID,0,
2012-07-16, 10:26:05,VALID,1005.93,VALID,0,VALID,80.7059,VALID,307.778,VALID,25.8648,VALID,341,VALID,0.711328,
2012-07-16, 10:27:05,VALID,1005.88,VALID,0,VALID,83.3684,VALID,322.531,VALID,25.9836,VALID,327,VALID,0.00585938,
2012-07-16, 10:28:05,VALID,1005.88,VALID,0,VALID,81.8121,VALID,299.056,VALID,26.081,VALID,331,VALID,0.484375,
2012-07-16, 10:29:05,VALID,1005.87,VALID,0,VALID,77.7764,VALID,299.708,VALID,26.0791,VALID,341,VALID,0.897266,
2012-07-16, 10:30:05,VALID,1005.86,VALID,0,VALID,79.3404,VALID,278.76,VALID,26.118,VALID,340,VALID,1.08633,
2012-07-16, 10:31:05,VALID,1005.86,VALID,0,VALID,80.8585,VALID,268.572,VALID,26.1395,VALID,348,VALID,0.959375,
2012-07-16, 10:32:05,VALID,1005.83,VALID,0,VALID,80.1566,VALID,267.349,VALID,26.1395,VALID,352,VALID,1.7582,
2012-07-16, 10:33:05,VALID,1005.87,VALID,0,VALID,82.1173,VALID,271.262,VALID,26.0596,VALID,2,VALID,1.98945,
2012-07-16, 10:34:05,VALID,1005.89,VALID,0,VALID,83.5515,VALID,275.582,VALID,25.9213,VALID,351,VALID,1.5418,
2012-07-16, 10:35:05,VALID,1005.87,VALID,0,VALID,83.8033,VALID,282.347,VALID,25.7869,VALID,350,VALID,1.26367,
2012-07-16, 10:36:05,VALID,1005.85,VALID,0,VALID,85.0086,VALID,284.874,VALID,25.6506,VALID,4,VALID,1.53711,
2012-07-16, 10:37:05,VALID,1005.84,VALID,0,VALID,85.2756,VALID,301.664,VALID,25.5532,VALID,337,VALID,0.78125,
2012-07-16, 10:38:05,VALID,1005.85,VALID,0,VALID,85.4358,VALID,305.821,VALID,25.5318,VALID,3,VALID,1.25664,
2012-07-16, 10:39:05,VALID,1005.86,VALID,0,VALID,84.2915,VALID,302.724,VALID,25.4753,VALID,354,VALID,2.15156,
2012-07-16, 10:40:05,VALID,1005.86,VALID,0,VALID,83.8795,VALID,294.166,VALID,25.3974,VALID,350,VALID,1.70938,
2012-07-16, 10:41:05,VALID,1005.85,VALID,0,VALID,84.4136,VALID,289.275,VALID,25.2806,VALID,353,VALID,1.20078,
2012-07-16, 10:42:05,VALID,1005.81,VALID,0,VALID,84.1084,VALID,283.488,VALID,25.2416,VALID,15,VALID,1.48047,
2012-07-16, 10:43:05,VALID,1005.74,VALID,0,VALID,84.1618,VALID,279.005,VALID,25.1442,VALID,350,VALID,1.25625,
2012-07-16, 10:44:04,VALID,1005.78,VALID,0,VALID,84.8637,VALID,273.544,VALID,25.1248,VALID,334,VALID,1.15625,
2012-07-16, 10:45:04,VALID,1005.72,VALID,0,VALID,84.8713,VALID,270.773,VALID,25.0858,VALID,349,VALID,1.14805,
2012-07-16, 10:46:04,VALID,1005.7,VALID,0,VALID,84.9476,VALID,267.268,VALID,25.1053,VALID,26,VALID,0.805469,
2012-07-16, 10:47:04,VALID,1005.66,VALID,0,VALID,84.2686,VALID,264.333,VALID,25.1442,VALID,9,VALID,0.994531,
2012-07-16, 10:48:04,VALID,1005.65,VALID,0,VALID,85.4511,VALID,264.496,VALID,25.1637,VALID,344,VALID,0.117578,
2012-07-16, 10:49:04,VALID,1005.6,VALID,0,VALID,85.4206,VALID,268.001,VALID,25.2806,VALID,344,VALID,0.0851562,
2012-07-16, 10:50:04,VALID,1005.57,VALID,0,VALID,86.5649,VALID,271.751,VALID,25.4169,VALID,267,VALID,0.2625,
2012-07-16, 10:51:04,VALID,1005.56,VALID,0,VALID,83.0022,VALID,274.767,VALID,25.4558,VALID,297,VALID,0.607422,
2012-07-16, 10:52:04,VALID,1005.54,VALID,0,VALID,82.5903,VALID,277.456,VALID,25.5532,VALID,355,VALID,0.802344,
2012-07-16, 10:53:04,VALID,1005.55,VALID,0,VALID,82.2546,VALID,278.271,VALID,25.5337,VALID,351,VALID,0.669922,
2012-07-16, 10:54:04,VALID,1005.56,VALID,0,VALID,83.1243,VALID,276.641,VALID,25.5532,VALID,351,VALID,0.892969,
2012-07-16, 10:55:04,VALID,1005.57,VALID,0,VALID,83.8033,VALID,273.381,VALID,25.6136,VALID,348,VALID,0.813281,
2012-07-16, 10:56:04,VALID,1005.64,VALID,0,VALID,83.4676,VALID,269.958,VALID,25.5921,VALID,353,VALID,1.01094,
2012-07-16, 10:57:04,VALID,1005.65,VALID,0,VALID,84.055,VALID,260.91,VALID,25.6506,VALID,359,VALID,0.615234,
2012-07-16, 10:58:04,VALID,1005.73,VALID,0,VALID,84.7492,VALID,251.944,VALID,25.7285,VALID,357,VALID,0.583984,
2012-07-16, 10:59:04,VALID,1005.78,VALID,0,VALID,83.0632,VALID,242,VALID,25.748,VALID,356,VALID,0.650391,
2012-07-16, 11:00:04,VALID,1005.79,VALID,0,VALID,83.788,VALID,230.752,VALID,25.7869,VALID,356,VALID,0.563281,
2012-07-16, 11:01:04,VALID,1005.8,VALID,0,VALID,82.6589,VALID,219.993,VALID,25.8064,VALID,359,VALID,0.0332031,
2012-07-16, 11:02:04,VALID,1005.78,VALID,0,VALID,84.5814,VALID,210.701,VALID,25.8843,VALID,1,VALID,0.148047,
2012-07-16, 11:03:04,VALID,1005.74,VALID,0,VALID,82.781,VALID,202.224,VALID,25.9232,VALID,17,VALID,0.515625,
2012-07-16, 11:04:04,VALID,1005.72,VALID,0,VALID,80.4771,VALID,193.91,VALID,26.0012,VALID,358,VALID,0.869531,
2012-07-16, 11:05:04,VALID,1005.72,VALID,0,VALID,79.1344,VALID,185.107,VALID,25.9622,VALID,17,VALID,1.3082,
2012-07-16, 11:06:04,VALID,1005.7,VALID,0,VALID,79.6455,VALID,176.222,VALID,25.8843,VALID,353,VALID,1.34531,
2012-07-16, 11:07:04,VALID,1005.73,VALID,0,VALID,78.8521,VALID,167.175,VALID,25.7869,VALID,353,VALID,0.971094,
2012-07-16, 11:08:04,VALID,1005.76,VALID,0,VALID,80.1872,VALID,157.801,VALID,25.7499,VALID,352,VALID,0.957031,
2012-07-16, 11:09:04,VALID,1005.79,VALID,0,VALID,80.3397,VALID,148.591,VALID,25.672,VALID,349,VALID,1.10625,
2012-07-16, 11:10:04,VALID,1005.78,VALID,0,VALID,81.5985,VALID,140.195,VALID,25.5727,VALID,360,VALID,1.00156,
2012-07-16, 11:13:05,INVALID - VALUE NOT AVAILABLE,0,INVALID - VALUE NOT AVAILABLE,0,INVALID - VALUE NOT AVAILABLE,0,INVALID - VALUE NOT AVAILABLE,0,INVALID - VALUE NOT AVAILABLE,0,INVALID,360,INVALID,0,
2012-07-16, 11:26:05,VALID,1005.8,VALID,0,VALID,82.4758,VALID,125.605,VALID,25.1053,VALID,17,VALID,2.17734,
2012-07-16, 11:27:05,VALID,1005.8,VALID,0,VALID,82.8268,VALID,131.392,VALID,25.1248,VALID,350,VALID,1.48555,
2012-07-16, 11:28:05,VALID,1005.78,VALID,0,VALID,82.9336,VALID,136.772,VALID,25.1053,VALID,29,VALID,1.4043,
2012-07-16, 11:29:05,VALID,1005.82,VALID,0,VALID,84.0703,VALID,141.499,VALID,25.0858,VALID,8,VALID,1.53398,
2012-07-16, 11:30:05,VALID,1005.76,VALID,0,VALID,85.2604,VALID,144.108,VALID,25.0469,VALID,8,VALID,0.944141,
2012-07-16, 11:31:05,VALID,1005.75,VALID,0,VALID,85.8707,VALID,146.472,VALID,24.9885,VALID,49,VALID,1.12969,
2012-07-16, 11:32:05,VALID,1005.75,VALID,0,VALID,86.1987,VALID,149.732,VALID,24.93,VALID,354,VALID,1.34453,
2012-07-16, 11:33:05,VALID,1005.71,VALID,0,VALID,87.4422,VALID,151.444,VALID,24.8911,VALID,16,VALID,1.14063,
2012-07-16, 11:34:05,VALID,1005.68,VALID,0,VALID,85.947,VALID,156.823,VALID,24.8132,VALID,23,VALID,1.40156,
2012-07-16, 11:35:05,VALID,1005.66,VALID,0,VALID,87.2591,VALID,156.008,VALID,24.7548,VALID,6,VALID,1.45469,
2012-07-16, 11:36:05,VALID,1005.62,VALID,0,VALID,86.7251,VALID,152.748,VALID,24.7353,VALID,28,VALID,0.883984,
2012-07-16, 11:37:05,VALID,1005.6,VALID,0,VALID,87.2973,VALID,147.694,VALID,24.7159,VALID,13,VALID,0.887109,
2012-07-16, 11:38:05,VALID,1005.57,VALID,0,VALID,87.5795,VALID,140.521,VALID,24.6769,VALID,356,VALID,1.26484,
2012-07-16, 11:39:05,VALID,1005.57,VALID,0,VALID,87.4575,VALID,133.104,VALID,24.6574,VALID,352,VALID,0.904688,
2012-07-16, 11:40:05,VALID,1005.57,VALID,0,VALID,87.0913,VALID,125.605,VALID,24.5972,VALID,359,VALID,1.97656,
2012-07-16, 11:41:05,VALID,1005.6,VALID,0,VALID,87.6711,VALID,118.188,VALID,24.5582,VALID,17,VALID,1.6457,
2012-07-16, 11:42:05,VALID,1005.59,VALID,0,VALID,86.9692,VALID,111.504,VALID,24.4998,VALID,354,VALID,2.11055,
2012-07-16, 11:50:05,INVALID - VALUE NOT AVAILABLE,0,INVALID - VALUE NOT AVAILABLE,0,INVALID - VALUE NOT AVAILABLE,0,INVALID - VALUE NOT AVAILABLE,0,INVALID - VALUE NOT AVAILABLE,0,INVALID,360,INVALID,0,
2012-07-16, 12:09:05,VALID,1005.23,VALID,0,VALID,89.8148,VALID,107.51,VALID,24.3849,VALID,355,VALID,0,
2012-07-16, 12:10:05,VALID,1005.18,VALID,0,VALID,89.3342,VALID,112.727,VALID,24.4043,VALID,29,VALID,0.928125,
2012-07-16, 12:11:05,VALID,1005.14,VALID,0,VALID,89.9216,VALID,120.063,VALID,24.422,VALID,346,VALID,0.475391,
2012-07-16, 12:12:05,VALID,1005.12,VALID,0,VALID,89.9979,VALID,129.273,VALID,24.4433,VALID,355,VALID,1.14102,
2012-07-16, 12:13:05,VALID,1005.07,VALID,0,VALID,89.029,VALID,140.684,VALID,24.4025,VALID,355,VALID,0.851953,
2012-07-16, 12:14:05,VALID,1005.08,VALID,0,VALID,90.0742,VALID,153.726,VALID,24.4414,VALID,6,VALID,0.263281,
2012-07-16, 12:15:05,VALID,1005.05,VALID,0,VALID,89.6088,VALID,170.354,VALID,24.4414,VALID,354,VALID,0.958984,
2012-07-16, 12:16:05,VALID,1005.05,VALID,0,VALID,89.7996,VALID,190.486,VALID,24.4414,VALID,2,VALID,0.835156,
2012-07-16, 12:17:05,VALID,1005.06,VALID,0,VALID,89.7767,VALID,211.434,VALID,24.4804,VALID,360,VALID,1.2293,
2012-07-16, 12:18:05,VALID,1005.05,VALID,0,VALID,89.3342,VALID,233.279,VALID,24.4804,VALID,344,VALID,1.56094,
2012-07-16, 12:19:05,VALID,1005.01,VALID,0,VALID,89.174,VALID,254.226,VALID,24.4998,VALID,9,VALID,1.41211,
2012-07-16, 12:20:05,VALID,1005.03,VALID,0,VALID,89.2503,VALID,274.033,VALID,24.5406,VALID,353,VALID,1.0457,
2012-07-16, 12:21:05,VALID,1004.99,VALID,0,VALID,89.4563,VALID,294.247,VALID,24.5388,VALID,347,VALID,0.930859,
2012-07-16, 12:22:05,VALID,1004.99,VALID,0.5,VALID,89.9064,VALID,315.276,VALID,24.5972,VALID,30,VALID,0.821484,
2012-07-16, 12:23:05,VALID,1005,VALID,0,VALID,90.7379,VALID,338.833,VALID,24.714,VALID,30,VALID,0.155469,
2012-07-16, 12:24:05,VALID,1005,VALID,0,VALID,89.8453,VALID,362.878,VALID,24.8132,VALID,28,VALID,0,
2012-07-16, 12:25:05,VALID,1005.01,VALID,0,VALID,90.2878,VALID,392.628,VALID,24.8716,VALID,32,VALID,0.916016,
2012-07-16, 12:26:05,VALID,1005.02,VALID,0,VALID,89.8301,VALID,409.745,VALID,24.93,VALID,14,VALID,0.860547,
2012-07-16, 12:27:05,VALID,1005.03,VALID,0,VALID,90.5396,VALID,397.845,VALID,25.0274,VALID,42,VALID,0.414063,
2012-07-16, 12:28:05,VALID,1005.07,VALID,0,VALID,90.1276,VALID,391.976,VALID,25.1442,VALID,67,VALID,1.18281,
2012-07-16, 12:29:05,VALID,1005.06,VALID,0,VALID,90.9744,VALID,391.243,VALID,25.2825,VALID,20,VALID,0.40625,
2012-07-16, 12:30:05,VALID,1005.08,VALID,0,VALID,90.4404,VALID,394.829,VALID,25.3195,VALID,33,VALID,0.379687,
2012-07-16, 12:31:05,VALID,1005.1,VALID,0,VALID,90.8523,VALID,398.171,VALID,25.4967,VALID,52,VALID,0.438281,